Location: *
(43.6428°N, 11.5461°E)
Time: 06:54:43
(UTC+00:00)

ATLAS CENTAUR R/B - Pass Details

Date: 21 October 2019
Orbit: 457 x 691 km, 64.7° (Epoch: 20 November)

Event Time Altitude Azimuth Distance (km) Brightness Sun altitude
Rises 18:26:02 0° 336° (NNW) 2,949 5.5 -23.2°
Reaches altitude 10° 18:30:08 10° 11° (N) 1,973 4.1 -24.0°
Enters shadow 18:30:12 10° 12° (NNE) 1,964 4.1 -24.0°
